map of AGP home
AGP - Airport
Location
City:  Málaga, Andalusia, Spain
Name:Costa del Sol Airport
ICAO:LEMG
IATA:AGP

Details
Type:Airport (Aerodrome, Airfield)
Use:Public/Civil, International (customs port of entry)
Latitude:36°40'30"N (36.675000)
Longitude:4°29'57"W (-4.499166)
Elevation:52 ft (16 m)
Variation:0.81°W (WMM2015 magnetic declination)
0.11° annual change
Runways:1
Longest:10500 × 148 ft (3200 × 45 m), paved

Time
Time Zone:UTC+1 (DST+2)
Local Time:

Weather
METAR:LEMG 172200Z VRB01KT CAVOK 25/08 Q1015 NOSIG
TAF:LEMG 171700Z 1718/1818 13006KT CAVOK TX30/1812Z TN21/1805Z
BECMG 1719/1721 29004KT
BECMG 1807/1809 13006KT

Related Locations
Nearby:
Farthest:CMV: 12443 mi / 20025 km
Coromandel, WKO, NZ

Find:

   beyond  
but within

Other Information
Maps:
NOTAMs:
Links:
Sources:

  
  • flag of Spain
  • flag of Andalusia
  

Airport Diagram

Airport diagram for AGP

Airport diagram PDF

Sectional Chart

Flight Planning
at skyvector.com

Satellite Image

Google Maps Satellite view

 

Copyright © 2004-2018 Karl L. Swartz. All rights reserved.
The Great Circle Mapper name and logo are trademarks of the Great Circle Mapper.
All other trademarks mentioned herein belong to their respective owners.
Please see credits for attibutions and further copyright information.

  Follow gcmap on Facebook Follow gcmap on Twitter Follow gcmap on Google+ GCmap on LinkedIn

hCard Microformat

Geo Microformat